User: anonymous   Login
Location: Ertinghausen
(51.6624°N, 9.7874°E)
Time: 20:58:53
(UTC+00:00)
Language:

Meteor 1-21 - Orbit

View from above orbital plane
View from above orbital plane
View from above satellite
View from above satellite

Ground track
Ground track

The orbit data is extracted from the following two-line orbital elements,

1 07714U 75023A   24197.70775018  .00000161  00000-0  86422-4 0  9998
2 07714  81.2062 193.9070 0029956 169.1333 191.0490 14.08284035848791
Epoch (UTC): 15 July 2024 16:59:09
Eccentricity: 0.0029956
inclination: 81.2062°
perigee height: 843 km
apogee height: 887 km
right ascension of ascending node: 193.9070°
argument of perigee: 169.1333°
revolutions per day: 14.08284035
mean anomaly at epoch: 191.0490°
orbit number at epoch: 84879

The dashed part of the orbit path shows where the satellite is in the earth's shadow,  

DLR